Location: Contre
(49.7477°N, 2.0963°E)
Time: 13:39:28
(UTC+00:00)

Cosmos 1943 Rocket - Visible Passes

Search period start: 25 September 2023 00:00
Search period end: 05 October 2023 00:00
Orbit: 810 x 845 km, 71.0° (Epoch: 25 September)

Date Brightness Start Highest point End Pass type
(mag) Time Alt. Az. Time Alt. Az. Time Alt. Az.
25 Sep 3.9 18:34:03 10° N 18:37:46 17° NE 18:41:28 10° ENE visible
25 Sep 2.2 20:17:04 10° NNW 20:22:43 62° ENE 20:23:02 61° ENE visible
25 Sep 4.1 22:01:28 10° NW 22:04:33 23° W 22:04:33 23° W visible
26 Sep 4.0 18:14:48 10° N 18:18:17 16° NNE 18:21:45 10° ENE visible
26 Sep 2.3 19:57:44 10° NNW 20:03:21 56° NE 20:04:13 51° E visible
26 Sep 3.9 21:41:59 10° NW 21:45:44 27° W 21:45:44 27° W visible
27 Sep 2.5 19:38:24 10° NNW 19:43:57 51° NE 19:45:26 40° E visible
27 Sep 3.6 21:22:32 10° NW 21:26:57 31° W 21:26:57 31° W visible
28 Sep 2.6 19:19:06 10° NNW 19:24:34 46° NE 19:26:42 32° ESE visible
28 Sep 3.3 21:03:05 10° NW 21:08:12 36° WSW 21:08:13 36° WSW visible
29 Sep 2.7 18:59:46 10° NNW 19:05:10 41° NE 19:08:01 24° ESE visible
29 Sep 3.1 20:43:39 10° NW 20:48:55 40° WSW 20:49:33 39° SW visible
30 Sep 2.8 18:40:28 10° NNW 18:45:45 38° NE 18:49:24 18° ESE visible
30 Sep 3.0 20:24:14 10° NW 20:29:37 45° WSW 20:30:55 39° SW visible
01 Oct 3.0 18:21:10 10° NNW 18:26:20 34° NE 18:30:51 13° ESE visible
01 Oct 2.8 20:04:50 10° NW 20:10:18 51° WSW 20:12:23 34° SSW visible
02 Oct 3.1 18:01:51 10° NNW 18:06:54 32° NE 18:11:54 10° ESE visible
02 Oct 2.7 19:45:26 10° NW 19:51:00 57° WSW 19:53:56 27° S visible
03 Oct 2.5 19:26:03 10° NNW 19:31:41 65° WSW 19:35:35 20° S visible
03 Oct 4.9 21:13:05 10° W 21:14:15 11° W 21:15:27 10° WSW visible
04 Oct 2.4 19:06:40 10° NNW 19:12:20 72° WSW 19:17:22 13° SSE visible
04 Oct 4.8 20:52:50 10° WNW 20:55:03 12° W 20:57:14 10° WSW visible
